DLH211 EDDC-EDDF

Flight info

Callsign DLH211
Flight time N/A
Altitude 30000
Route ABKIS4E ABKIS Z715 PEROX/N0459F380 Z715 NURGO T170 GAPLA/N0427F240 T178 KERAX KERAX5D
Aircraft A319/M-SDE3FGHIRWY/LB1

Departure

Time 2026-05-07 20:12
Airport Dresden Airport (EDDC)

Arrival

Time N/A
Airport Frankfurt Main Airport (EDDF)
Time Latitude Longitude Altitude Speed Heading
2026-05-07 19:39 51.12626 13.76540 753 ft 0 kts 221°
2026-05-07 20:02 51.12633 13.76550 748 ft 4 kts 221°
2026-05-07 20:02 51.12652 13.76575 751 ft 2 kts 221°
2026-05-07 20:03 51.12667 13.76602 748 ft 4 kts 259°
2026-05-07 20:03 51.12662 13.76637 749 ft 3 kts 311°
2026-05-07 20:03 51.12649 13.76661 748 ft 0 kts 311°
2026-05-07 20:07 51.12659 13.76643 750 ft 6 kts 311°
2026-05-07 20:08 51.12702 13.76566 751 ft 10 kts 311°
2026-05-07 20:08 51.12741 13.76494 751 ft 8 kts 311°
2026-05-07 20:08 51.12765 13.76450 753 ft 8 kts 311°
2026-05-07 20:08 51.12761 13.76347 754 ft 14 kts 220°
2026-05-07 20:09 51.12677 13.76234 757 ft 18 kts 221°
2026-05-07 20:09 51.12568 13.76084 758 ft 23 kts 221°
2026-05-07 20:09 51.12446 13.75916 762 ft 20 kts 221°
2026-05-07 20:10 51.12369 13.75750 764 ft 5 kts 286°
2026-05-07 20:10 51.12388 13.75686 764 ft 11 kts 294°
2026-05-07 20:10 51.12428 13.75564 764 ft 10 kts 308°
2026-05-07 20:10 51.12466 13.75497 764 ft 7 kts 312°
2026-05-07 20:11 51.12492 13.75502 764 ft 3 kts 40°
2026-05-07 20:11 51.12494 13.75505 764 ft 0 kts 41°
2026-05-07 20:12 51.12581 13.75624 763 ft 53 kts 40°
2026-05-07 20:12 51.13046 13.76263 754 ft 123 kts 40°
2026-05-07 20:12 51.13809 13.77328 1053 ft 151 kts 41°
2026-05-07 20:12 51.14577 13.78447 1888 ft 149 kts 40°
2026-05-07 20:13 51.15395 13.79594 2479 ft 167 kts 39°
2026-05-07 20:13 51.16338 13.80883 3009 ft 188 kts 39°
2026-05-07 20:13 51.17405 13.82330 3426 ft 216 kts 39°
2026-05-07 20:13 51.18618 13.83985 3947 ft 242 kts 40°
2026-05-07 20:14 51.19856 13.85956 4665 ft 262 kts 57°
2026-05-07 20:14 51.20334 13.88756 5550 ft 274 kts 90°
2026-05-07 20:14 51.19835 13.91725 6462 ft 283 kts 122°
2026-05-07 20:14 51.18415 13.93842 7530 ft 279 kts 154°
2026-05-07 20:15 51.16563 13.94596 8512 ft 281 kts 180°
2026-05-07 20:15 51.14651 13.94018 9560 ft 282 kts 201°
2026-05-07 20:15 51.12977 13.92380 10533 ft 285 kts 223°
2026-05-07 20:15 51.11567 13.89986 11010 ft 307 kts 227°
2026-05-07 20:16 51.10080 13.87358 11349 ft 331 kts 228°
2026-05-07 20:16 51.08489 13.84523 11700 ft 352 kts 228°
2026-05-07 20:16 51.06856 13.81623 12347 ft 360 kts 228°
2026-05-07 20:16 51.05164 13.78634 13135 ft 365 kts 228°
2026-05-07 20:17 51.03447 13.75610 13944 ft 369 kts 227°
2026-05-07 20:17 51.01709 13.72566 14623 ft 374 kts 227°
2026-05-07 20:17 50.99943 13.69484 15301 ft 379 kts 228°
2026-05-07 20:17 50.98159 13.66374 16039 ft 382 kts 228°
2026-05-07 20:18 50.96365 13.63251 16787 ft 384 kts 228°
2026-05-07 20:18 50.94572 13.60135 17476 ft 389 kts 228°
2026-05-07 20:18 50.92727 13.56936 18167 ft 394 kts 229°
2026-05-07 20:18 50.90865 13.53705 18804 ft 398 kts 229°
2026-05-07 20:19 50.88993 13.50449 19394 ft 401 kts 229°
2026-05-07 20:19 50.87112 13.47184 19946 ft 406 kts 229°
2026-05-07 20:19 50.85199 13.43872 20503 ft 410 kts 229°
2026-05-07 20:19 50.83262 13.40523 21046 ft 413 kts 229°
2026-05-07 20:20 50.81329 13.37181 21582 ft 417 kts 229°
2026-05-07 20:20 50.79356 13.33775 22120 ft 421 kts 229°
2026-05-07 20:20 50.77368 13.30349 22673 ft 423 kts 230°
2026-05-07 20:20 50.75362 13.26905 23186 ft 427 kts 230°
2026-05-07 20:21 50.73338 13.23438 23686 ft 430 kts 230°
2026-05-07 20:21 50.71323 13.19989 24125 ft 434 kts 230°
2026-05-07 20:21 50.69249 13.16438 24526 ft 438 kts 230°
2026-05-07 20:21 50.67195 13.12931 24874 ft 442 kts 230°
2026-05-07 20:22 50.65092 13.09347 25289 ft 445 kts 230°
2026-05-07 20:22 50.63125 13.05563 25695 ft 445 kts 238°
2026-05-07 20:22 50.61551 13.01386 26105 ft 445 kts 245°
2026-05-07 20:22 50.60133 12.97025 26517 ft 446 kts 245°
2026-05-07 20:23 50.58732 12.92744 26997 ft 446 kts 245°
2026-05-07 20:23 50.57296 12.88372 27422 ft 448 kts 245°
2026-05-07 20:23 50.55869 12.84044 27814 ft 450 kts 245°
2026-05-07 20:23 50.54415 12.79653 28197 ft 452 kts 245°
2026-05-07 20:24 50.52952 12.75241 28569 ft 454 kts 245°
2026-05-07 20:24 50.51500 12.70861 28933 ft 456 kts 245°
2026-05-07 20:24 50.50034 12.66435 29435 ft 455 kts 245°
2026-05-07 20:24 50.48567 12.62016 29939 ft 454 kts 245°
2026-05-07 20:25 50.47109 12.57625 30056 ft 453 kts 244°
2026-05-07 20:25 50.44211 12.48921 30086 ft 452 kts 244°
2026-05-07 20:26 50.41284 12.40187 30086 ft 452 kts 244°
2026-05-07 20:26 50.38347 12.31465 30081 ft 452 kts 244°
2026-05-07 20:27 50.35407 12.22745 30084 ft 452 kts 244°
2026-05-07 20:27 50.32072 12.14451 30086 ft 454 kts 238°
2026-05-07 20:28 50.29206 12.05756 30083 ft 449 kts 255°
2026-05-07 20:28 50.28477 11.96150 30065 ft 445 kts 275°
2026-05-07 20:29 50.29859 11.86850 30065 ft 442 kts 291°
2026-05-07 20:29 50.31936 11.77768 30067 ft 443 kts 290°
2026-05-07 20:30 50.33986 11.68696 30070 ft 444 kts 290°
2026-05-07 20:30 50.35701 11.59388 30067 ft 446 kts 277°
2026-05-07 20:31 50.36360 11.49787 30074 ft 446 kts 276°
2026-05-07 20:31 50.37007 11.40082 30076 ft 447 kts 276°
2026-05-07 20:32 50.37629 11.30440 30079 ft 447 kts 276°
2026-05-07 20:32 50.38249 11.20770 30080 ft 447 kts 276°
2026-05-07 20:33 50.38868 11.11055 30074 ft 447 kts 276°
2026-05-07 20:33 50.39472 11.01399 30075 ft 447 kts 275°
2026-05-07 20:34 50.40075 10.91648 30080 ft 447 kts 275°
2026-05-07 20:34 50.40668 10.81982 30082 ft 447 kts 275°
2026-05-07 20:35 50.41254 10.72298 30088 ft 447 kts 275°
2026-05-07 20:35 50.41824 10.62562 30082 ft 447 kts 275°
2026-05-07 20:36 50.42392 10.52823 30091 ft 447 kts 275°
2026-05-07 20:36 50.42955 10.43158 30092 ft 447 kts 275°
2026-05-07 20:37 50.43514 10.33402 30098 ft 447 kts 275°
2026-05-07 20:37 50.44056 10.23739 30098 ft 447 kts 275°
2026-05-07 20:38 50.44592 10.13988 30111 ft 446 kts 275°
2026-05-07 20:38 50.45111 10.04349 30113 ft 446 kts 275°
2026-05-07 20:39 50.45628 9.94638 30111 ft 445 kts 275°
2026-05-07 20:39 50.46144 9.84944 30112 ft 445 kts 275°
2026-05-07 20:40 50.46646 9.75305 30096 ft 444 kts 275°
2026-05-07 20:40 50.47135 9.65646 30105 ft 443 kts 275°
2026-05-07 20:41 50.46954 9.55970 30108 ft 445 kts 261°
2026-05-07 20:41 50.45318 9.46663 30104 ft 445 kts 255°
2026-05-07 20:42 50.43546 9.37330 30103 ft 445 kts 255°
2026-05-07 20:42 50.41179 9.28433 30095 ft 448 kts 239°
2026-05-07 20:43 50.37022 9.21121 30093 ft 451 kts 220°
2026-05-07 20:43 50.31782 9.15711 30082 ft 451 kts 217°
2026-05-07 20:44 50.27377 9.08923 30079 ft 447 kts 235°
2026-05-07 20:44 50.24541 9.00346 29603 ft 440 kts 251°
2026-05-07 20:44 50.23482 8.95848 28380 ft 442 kts 251°
2026-05-07 20:45 50.22433 8.91325 27149 ft 445 kts 251°
2026-05-07 20:45 50.21388 8.86810 25932 ft 448 kts 251°
2026-05-07 20:45 50.20317 8.82220 24686 ft 450 kts 250°
2026-05-07 20:45 50.19234 8.77610 23378 ft 453 kts 250°
2026-05-07 20:46 50.18148 8.73028 22369 ft 447 kts 250°
2026-05-07 20:46 50.17080 8.68536 21435 ft 441 kts 250°
2026-05-07 20:46 50.16018 8.64074 20535 ft 436 kts 250°
2026-05-07 20:46 50.14969 8.59669 19663 ft 431 kts 250°
2026-05-07 20:47 50.13931 8.55321 18843 ft 426 kts 250°
2026-05-07 20:47 50.12902 8.51022 17836 ft 419 kts 250°
2026-05-07 20:47 50.11883 8.46770 16709 ft 414 kts 250°
2026-05-07 20:47 50.10897 8.42656 15700 ft 408 kts 250°